Location: Albany
(35.0000°S, 118.0000°E)
Time: 05:27:06
(UTC-04:00)

ERS-1 Rocket - Visible Passes

Search period start: 23 August 2014 00:00
Search period end: 02 September 2014 00:00
Orbit: 754 x 760 km, 98.7° (Epoch: 23 August)

Date Brightness Start Highest point End Pass type
(mag) Time Alt. Az. Time Alt. Az. Time Alt. Az.
23 Aug 3.2 07:48:20 55° N 07:48:20 55° N 07:52:16 10° N visible
24 Aug 3.7 07:08:39 31° ENE 07:08:39 31° ENE 07:12:34 10° NNE visible
24 Aug 5.2 08:48:41 20° WNW 08:48:41 20° WNW 08:50:51 10° WNW visible
25 Aug 4.7 06:28:57 12° E 06:28:57 12° E 06:30:46 10° ENE visible
25 Aug 3.6 08:08:58 51° NW 08:08:58 51° NW 08:12:56 10° NNW visible
25 Aug 5.9 17:37:15 10° E 17:39:36 13° ESE 17:41:57 10° SE visible
26 Aug 3.1 07:29:14 50° ENE 07:29:14 50° ENE 07:33:51 10° N visible
26 Aug 5.7 09:09:15 14° W 09:09:15 14° W 09:10:23 10° WNW visible
27 Aug 4.2 06:49:25 20° E 06:49:44 20° E 06:53:26 10° NE visible
27 Aug 4.3 08:23:53 10° S 08:29:25 36° W 08:33:17 10° NW visible
27 Aug 5.7 17:56:24 10° ENE 18:00:07 21° ESE 18:03:51 10° SSE visible
28 Aug 2.8 07:44:36 10° SSE 07:49:44 84° ENE 07:54:48 10° NNW visible
29 Aug 3.6 07:06:04 10° SE 07:10:38 33° E 07:15:09 10° NNE visible
29 Aug 5.0 08:45:07 10° SSW 08:49:13 25° WSW 08:53:17 10° WNW visible
30 Aug 4.6 06:29:05 10° ESE 06:31:19 13° E 06:33:32 10° ENE visible
30 Aug 3.4 08:05:25 10° S 08:10:27 61° WSW 08:15:25 10° NNW visible
30 Aug 5.9 17:39:34 10° E 17:42:05 14° ESE 17:44:37 10° SSE visible
31 Aug 3.0 07:26:28 10° SSE 07:31:28 53° E 07:36:24 10° N visible
31 Aug 5.6 09:06:45 10° SSW 09:09:45 16° WSW 09:12:45 10° W visible
01 Sep 4.1 06:48:26 10° SE 06:52:16 21° E 06:56:03 10° NE visible
01 Sep 4.3 08:26:26 10° S 08:31:07 37° WSW 08:35:45 10° NW visible
01 Sep 5.7 17:58:48 10° ENE 18:02:36 22° ESE 18:06:26 10° SSE visible
